Year,Month,Day,Hour,Minute,Value (Times are PST for temperature in C)
2015,01,25,00,00,9.50
2015,01,25,00,01,9.50
2015,01,25,00,02,9.60
2015,01,25,00,03,9.70
2015,01,25,00,04,9.70
2015,01,25,00,05,9.80
2015,01,25,00,06,9.80
2015,01,25,00,07,9.90
2015,01,25,00,08,10.00
2015,01,25,00,09,10.00
2015,01,25,00,10,10.10
2015,01,25,00,11,10.10
2015,01,25,00,12,10.10
2015,01,25,00,13,10.20
2015,01,25,00,14,10.20
2015,01,25,00,15,10.20
2015,01,25,00,16,10.20
2015,01,25,00,17,10.20
2015,01,25,00,18,10.20
2015,01,25,00,19,10.20
2015,01,25,00,20,10.30
2015,01,25,00,21,10.30
2015,01,25,00,22,10.30
2015,01,25,00,23,10.30
2015,01,25,00,24,10.40
2015,01,25,00,25,10.40
2015,01,25,00,26,10.40
2015,01,25,00,27,10.40
2015,01,25,00,28,10.50
2015,01,25,00,29,10.50
2015,01,25,00,30,10.50
2015,01,25,00,31,10.60
2015,01,25,00,32,10.70
2015,01,25,00,33,10.70
2015,01,25,00,34,10.70
2015,01,25,00,35,10.70
2015,01,25,00,36,10.80
2015,01,25,00,37,10.80
2015,01,25,00,38,10.80
2015,01,25,00,39,10.80
2015,01,25,00,40,10.80
2015,01,25,00,41,10.80
2015,01,25,00,42,10.80
2015,01,25,00,43,10.80
2015,01,25,00,44,10.80
2015,01,25,00,45,10.90
2015,01,25,00,46,10.90
2015,01,25,00,47,10.90
2015,01,25,00,48,10.90
2015,01,25,00,49,10.90
2015,01,25,00,50,10.90
2015,01,25,00,51,10.90
2015,01,25,00,52,11.00
2015,01,25,00,53,11.00
2015,01,25,00,54,11.00
2015,01,25,00,55,11.00
2015,01,25,00,56,11.00
2015,01,25,00,57,11.10
2015,01,25,00,58,11.10
2015,01,25,00,59,11.10
2015,01,25,01,00,11.10
2015,01,25,01,01,11.10
2015,01,25,01,02,11.20
2015,01,25,01,03,11.20
2015,01,25,01,04,11.20
2015,01,25,01,05,11.20
2015,01,25,01,06,11.20
2015,01,25,01,07,11.20
2015,01,25,01,08,11.20
2015,01,25,01,09,11.30
2015,01,25,01,10,11.30
2015,01,25,01,11,11.30
2015,01,25,01,12,11.30
2015,01,25,01,13,11.40
2015,01,25,01,14,11.40
2015,01,25,01,15,11.50
2015,01,25,01,16,11.50
2015,01,25,01,17,11.60
2015,01,25,01,18,11.60
2015,01,25,01,19,11.60
2015,01,25,01,20,11.60
2015,01,25,01,21,11.60
2015,01,25,01,22,11.60
2015,01,25,01,23,11.60
2015,01,25,01,24,11.70
2015,01,25,01,25,11.60
2015,01,25,01,26,11.60
2015,01,25,01,27,11.60
2015,01,25,01,28,11.60
2015,01,25,01,29,11.60
2015,01,25,01,30,11.60
2015,01,25,01,31,11.60
2015,01,25,01,32,11.50
2015,01,25,01,33,11.50
2015,01,25,01,34,11.50
2015,01,25,01,35,11.50
2015,01,25,01,36,11.40
2015,01,25,01,37,11.40
2015,01,25,01,38,11.40
2015,01,25,01,39,11.40
2015,01,25,01,40,11.40
2015,01,25,01,41,11.40
2015,01,25,01,42,11.40
2015,01,25,01,43,11.40
2015,01,25,01,44,11.40
2015,01,25,01,45,11.40
2015,01,25,01,46,11.40
2015,01,25,01,47,11.40
2015,01,25,01,48,11.40
2015,01,25,01,49,11.40
2015,01,25,01,50,11.40
2015,01,25,01,51,11.40
2015,01,25,01,52,11.40
2015,01,25,01,53,11.40
2015,01,25,01,54,11.40
2015,01,25,01,55,11.40
2015,01,25,01,56,11.40
2015,01,25,01,57,11.40
2015,01,25,01,58,11.40
2015,01,25,01,59,11.40
2015,01,25,02,00,11.40
2015,01,25,02,01,11.40
2015,01,25,02,02,11.40
2015,01,25,02,03,11.40
2015,01,25,02,04,11.40
2015,01,25,02,05,11.40
2015,01,25,02,06,11.40
2015,01,25,02,07,11.40
2015,01,25,02,08,11.30
2015,01,25,02,09,11.30
2015,01,25,02,10,11.30
2015,01,25,02,11,11.30
2015,01,25,02,12,11.30
2015,01,25,02,13,11.30
2015,01,25,02,14,11.30
2015,01,25,02,15,11.30
2015,01,25,02,16,11.30
2015,01,25,02,17,11.30
2015,01,25,02,18,11.30
2015,01,25,02,19,11.30
2015,01,25,02,20,11.40
2015,01,25,02,21,11.40
2015,01,25,02,22,11.40
2015,01,25,02,23,11.40
2015,01,25,02,24,11.40
2015,01,25,02,25,11.40
2015,01,25,02,26,11.40
2015,01,25,02,27,11.40
2015,01,25,02,28,11.50
2015,01,25,02,29,11.50
2015,01,25,02,30,11.50
2015,01,25,02,31,11.50
2015,01,25,02,32,11.50
2015,01,25,02,33,11.50
2015,01,25,02,34,11.50
2015,01,25,02,35,11.50
2015,01,25,02,36,11.50
2015,01,25,02,37,11.50
2015,01,25,02,38,11.50
2015,01,25,02,39,11.50
2015,01,25,02,40,11.50
2015,01,25,02,41,11.50
2015,01,25,02,42,11.50
2015,01,25,02,43,11.50
2015,01,25,02,44,11.50
2015,01,25,02,45,11.60
2015,01,25,02,46,11.60
2015,01,25,02,47,11.60
2015,01,25,02,48,11.60
2015,01,25,02,49,11.70
2015,01,25,02,50,11.70
2015,01,25,02,51,11.70
2015,01,25,02,52,11.70
2015,01,25,02,53,11.70
2015,01,25,02,54,11.80
2015,01,25,02,55,11.80
2015,01,25,02,56,11.80
2015,01,25,02,57,11.80
2015,01,25,02,58,11.90
2015,01,25,02,59,11.90
2015,01,25,03,00,11.90
2015,01,25,03,01,11.90
2015,01,25,03,02,11.90
2015,01,25,03,03,12.00
2015,01,25,03,04,12.00
2015,01,25,03,05,12.00
2015,01,25,03,06,12.00
2015,01,25,03,07,12.00
2015,01,25,03,08,12.00
2015,01,25,03,09,12.10
2015,01,25,03,10,12.10
2015,01,25,03,11,12.20
2015,01,25,03,12,12.20
2015,01,25,03,13,12.20
2015,01,25,03,14,12.20
2015,01,25,03,15,12.20
2015,01,25,03,16,12.20
2015,01,25,03,17,12.20
2015,01,25,03,18,12.20
2015,01,25,03,19,12.20
2015,01,25,03,20,12.20
2015,01,25,03,21,12.20
2015,01,25,03,22,12.20
2015,01,25,03,23,12.30
2015,01,25,03,24,12.30
2015,01,25,03,25,12.30
2015,01,25,03,26,12.30
2015,01,25,03,27,12.30
2015,01,25,03,28,12.40
2015,01,25,03,29,12.40
2015,01,25,03,30,12.40
2015,01,25,03,31,12.50
2015,01,25,03,32,12.50
2015,01,25,03,33,12.50
2015,01,25,03,34,12.60
2015,01,25,03,35,12.60
2015,01,25,03,36,12.60
2015,01,25,03,37,12.70
2015,01,25,03,38,12.70
2015,01,25,03,39,12.70
2015,01,25,03,40,12.70
2015,01,25,03,41,12.70
2015,01,25,03,42,12.70
2015,01,25,03,43,12.70
2015,01,25,03,44,12.70
2015,01,25,03,45,12.70
2015,01,25,03,46,12.60
2015,01,25,03,47,12.60
2015,01,25,03,48,12.50
2015,01,25,03,49,12.40
2015,01,25,03,50,12.30
2015,01,25,03,51,12.20
2015,01,25,03,52,12.00
2015,01,25,03,53,11.90
2015,01,25,03,54,11.80
2015,01,25,03,55,11.70
2015,01,25,03,56,11.60
2015,01,25,03,57,11.50
2015,01,25,03,58,11.30
2015,01,25,03,59,11.20
2015,01,25,04,00,11.10
2015,01,25,04,01,11.10
2015,01,25,04,02,11.00
2015,01,25,04,03,10.90
2015,01,25,04,04,10.80
2015,01,25,04,05,10.70
2015,01,25,04,06,10.60
2015,01,25,04,07,10.50
2015,01,25,04,08,10.50
2015,01,25,04,09,10.40
2015,01,25,04,10,10.40
2015,01,25,04,11,10.30
2015,01,25,04,12,10.30
2015,01,25,04,13,10.20
2015,01,25,04,14,10.20
2015,01,25,04,15,10.10
2015,01,25,04,16,10.10
2015,01,25,04,17,10.10
2015,01,25,04,18,10.10
2015,01,25,04,19,10.00
2015,01,25,04,20,10.00
2015,01,25,04,21,10.00
2015,01,25,04,22,9.90
2015,01,25,04,23,9.90
2015,01,25,04,24,9.90
2015,01,25,04,25,9.90
2015,01,25,04,26,9.90
2015,01,25,04,27,9.90
2015,01,25,04,28,9.90
2015,01,25,04,29,9.90
2015,01,25,04,30,9.90
2015,01,25,04,31,9.90
2015,01,25,04,32,9.90
2015,01,25,04,33,9.80
2015,01,25,04,34,9.90
2015,01,25,04,35,9.90
2015,01,25,04,36,9.90
2015,01,25,04,37,9.80
2015,01,25,04,38,9.90
2015,01,25,04,39,9.90
2015,01,25,04,40,9.90
2015,01,25,04,41,9.90
2015,01,25,04,42,9.90
2015,01,25,04,43,9.90
2015,01,25,04,44,9.90
2015,01,25,04,45,9.90
2015,01,25,04,46,9.90
2015,01,25,04,47,9.90
2015,01,25,04,48,9.90
2015,01,25,04,49,9.90
2015,01,25,04,50,9.90
2015,01,25,04,51,9.90
2015,01,25,04,52,9.90
2015,01,25,04,53,9.90
2015,01,25,04,54,9.90
2015,01,25,04,55,9.90
2015,01,25,04,56,9.90
2015,01,25,04,57,9.90
2015,01,25,04,58,9.90
2015,01,25,04,59,9.90
2015,01,25,05,00,9.90
2015,01,25,05,01,9.90
2015,01,25,05,02,9.90
2015,01,25,05,03,9.90
2015,01,25,05,04,9.90
2015,01,25,05,05,9.90
2015,01,25,05,06,9.90
2015,01,25,05,07,9.80
2015,01,25,05,08,9.80
2015,01,25,05,09,9.80
2015,01,25,05,10,9.80
2015,01,25,05,11,9.80
2015,01,25,05,12,9.80
2015,01,25,05,13,9.80
2015,01,25,05,14,9.80
2015,01,25,05,15,9.80
2015,01,25,05,16,9.80
2015,01,25,05,17,9.70
2015,01,25,05,18,9.70
2015,01,25,05,19,9.70
2015,01,25,05,20,9.70
2015,01,25,05,21,9.70
2015,01,25,05,22,9.70
2015,01,25,05,23,9.70
2015,01,25,05,24,9.70
2015,01,25,05,25,9.70
2015,01,25,05,26,9.60
2015,01,25,05,27,9.60
2015,01,25,05,28,9.60
2015,01,25,05,29,9.60
2015,01,25,05,30,9.60
2015,01,25,05,31,9.60
2015,01,25,05,32,9.60
2015,01,25,05,33,9.60
2015,01,25,05,34,9.50
2015,01,25,05,35,9.50
2015,01,25,05,36,9.50
2015,01,25,05,37,9.50
2015,01,25,05,38,9.50
2015,01,25,05,39,9.50
2015,01,25,05,40,9.40
2015,01,25,05,41,9.40
2015,01,25,05,42,9.40
2015,01,25,05,43,9.40
2015,01,25,05,44,9.40
2015,01,25,05,45,9.40
2015,01,25,05,46,9.40
2015,01,25,05,47,9.40
2015,01,25,05,48,9.40
2015,01,25,05,49,9.30
2015,01,25,05,50,9.30
2015,01,25,05,51,9.30
2015,01,25,05,52,9.30
2015,01,25,05,53,9.30
2015,01,25,05,54,9.30
2015,01,25,05,55,9.30
2015,01,25,05,56,9.30
2015,01,25,05,57,9.30
2015,01,25,05,58,9.30
2015,01,25,05,59,9.30
2015,01,25,06,00,9.40
2015,01,25,06,01,9.40
2015,01,25,06,02,9.40
2015,01,25,06,03,9.40
2015,01,25,06,04,9.40
2015,01,25,06,05,9.40
2015,01,25,06,06,9.40
2015,01,25,06,07,9.40
2015,01,25,06,08,9.40
2015,01,25,06,09,9.40
2015,01,25,06,10,9.40
2015,01,25,06,11,9.40
2015,01,25,06,12,9.40
2015,01,25,06,13,9.40
2015,01,25,06,14,9.40
2015,01,25,06,15,9.40
2015,01,25,06,16,9.30
2015,01,25,06,17,9.30
2015,01,25,06,18,9.30
2015,01,25,06,19,9.30
2015,01,25,06,20,9.30
2015,01,25,06,21,9.30
2015,01,25,06,22,9.30
2015,01,25,06,23,9.30
2015,01,25,06,24,9.30
2015,01,25,06,25,9.30
2015,01,25,06,26,9.30
2015,01,25,06,27,9.30
2015,01,25,06,28,9.30
2015,01,25,06,29,9.30
2015,01,25,06,30,9.30
2015,01,25,06,31,9.30
2015,01,25,06,32,9.30
2015,01,25,06,33,9.30
2015,01,25,06,34,9.30
2015,01,25,06,35,9.30
2015,01,25,06,36,9.30
2015,01,25,06,37,9.30
2015,01,25,06,38,9.30
2015,01,25,06,39,9.30
2015,01,25,06,40,9.30
2015,01,25,06,41,9.30
2015,01,25,06,42,9.20
2015,01,25,06,43,9.20
2015,01,25,06,44,9.20
2015,01,25,06,45,9.20
2015,01,25,06,46,9.20
2015,01,25,06,47,9.20
2015,01,25,06,48,9.20
2015,01,25,06,49,9.10
2015,01,25,06,50,9.10
2015,01,25,06,51,9.10
2015,01,25,06,52,9.00
2015,01,25,06,53,9.00
2015,01,25,06,54,9.00
2015,01,25,06,55,8.90
2015,01,25,06,56,8.90
2015,01,25,06,57,8.90
2015,01,25,06,58,8.90
2015,01,25,06,59,8.90
2015,01,25,07,00,8.90
2015,01,25,07,01,8.80
2015,01,25,07,02,8.80
2015,01,25,07,03,8.80
2015,01,25,07,04,8.80
2015,01,25,07,05,8.80
2015,01,25,07,06,8.80
2015,01,25,07,07,8.80
2015,01,25,07,08,8.80
2015,01,25,07,09,8.80
2015,01,25,07,10,8.80
2015,01,25,07,11,8.80
2015,01,25,07,12,8.80
2015,01,25,07,13,8.80
2015,01,25,07,14,8.80
2015,01,25,07,15,8.80
2015,01,25,07,16,8.80
2015,01,25,07,17,8.70
2015,01,25,07,18,8.70
2015,01,25,07,19,8.70
2015,01,25,07,20,8.70
2015,01,25,07,21,8.70
2015,01,25,07,22,8.70
2015,01,25,07,23,8.70
2015,01,25,07,24,8.70
2015,01,25,07,25,8.70
2015,01,25,07,26,8.70
2015,01,25,07,27,8.70
2015,01,25,07,28,8.70
2015,01,25,07,29,8.70
2015,01,25,07,30,8.70
2015,01,25,07,31,8.70
2015,01,25,07,32,8.70
2015,01,25,07,33,8.70
2015,01,25,07,34,8.70
2015,01,25,07,35,8.70
2015,01,25,07,36,8.70
2015,01,25,07,37,8.60
2015,01,25,07,38,8.60
2015,01,25,07,39,8.70
2015,01,25,07,40,8.70
2015,01,25,07,41,8.70
2015,01,25,07,42,8.70
2015,01,25,07,43,8.70
2015,01,25,07,44,8.70
2015,01,25,07,45,8.70
2015,01,25,07,46,8.60
2015,01,25,07,47,8.60
2015,01,25,07,48,8.60
2015,01,25,07,49,8.60
2015,01,25,07,50,8.60
2015,01,25,07,51,8.60
2015,01,25,07,52,8.60
2015,01,25,07,53,8.60
2015,01,25,07,54,8.60
2015,01,25,07,55,8.60
2015,01,25,07,56,8.60
2015,01,25,07,57,8.50
2015,01,25,07,58,8.50
2015,01,25,07,59,8.50
2015,01,25,08,00,8.50
2015,01,25,08,01,8.50
2015,01,25,08,02,8.40
2015,01,25,08,03,8.40
2015,01,25,08,04,8.40
2015,01,25,08,05,8.40
2015,01,25,08,06,8.40
2015,01,25,08,07,8.40
2015,01,25,08,08,8.40
2015,01,25,08,09,8.50
2015,01,25,08,10,8.50
2015,01,25,08,11,8.50
2015,01,25,08,12,8.50
2015,01,25,08,13,8.50
2015,01,25,08,14,8.50
2015,01,25,08,15,8.50
2015,01,25,08,16,8.50
2015,01,25,08,17,8.60
2015,01,25,08,18,8.60
2015,01,25,08,19,8.60
2015,01,25,08,20,8.60
2015,01,25,08,21,8.60
2015,01,25,08,22,8.60
2015,01,25,08,23,8.60
2015,01,25,08,24,8.60
2015,01,25,08,25,8.60
2015,01,25,08,26,8.50
2015,01,25,08,27,8.50
2015,01,25,08,28,8.60
2015,01,25,08,29,8.60
2015,01,25,08,30,8.60
2015,01,25,08,31,8.60
2015,01,25,08,32,8.60
2015,01,25,08,33,8.60
2015,01,25,08,34,8.60
2015,01,25,08,35,8.60
2015,01,25,08,36,8.60
2015,01,25,08,37,8.60
2015,01,25,08,38,8.60
2015,01,25,08,39,8.60
2015,01,25,08,40,8.60
2015,01,25,08,41,8.60
2015,01,25,08,42,8.60
2015,01,25,08,43,8.60
2015,01,25,08,44,8.50
2015,01,25,08,45,8.50
2015,01,25,08,46,8.50
2015,01,25,08,47,8.40
2015,01,25,08,48,8.40
2015,01,25,08,49,8.40
2015,01,25,08,50,8.40
2015,01,25,08,51,8.40
2015,01,25,08,52,8.40
2015,01,25,08,53,8.40
2015,01,25,08,54,8.40
2015,01,25,08,55,8.40
2015,01,25,08,56,8.40
2015,01,25,08,57,8.30
2015,01,25,08,58,8.30
2015,01,25,08,59,8.30
2015,01,25,09,00,8.30
2015,01,25,09,01,8.30
2015,01,25,09,02,8.30
2015,01,25,09,03,8.30
2015,01,25,09,04,8.30
2015,01,25,09,05,8.30
2015,01,25,09,06,8.30
2015,01,25,09,07,8.30
2015,01,25,09,08,8.30
2015,01,25,09,09,8.30
2015,01,25,09,10,8.30
2015,01,25,09,11,8.30
2015,01,25,09,12,8.30
2015,01,25,09,13,8.30
2015,01,25,09,14,8.30
2015,01,25,09,15,8.30
2015,01,25,09,16,8.30
2015,01,25,09,17,8.30
2015,01,25,09,18,8.30
2015,01,25,09,19,8.30
2015,01,25,09,20,8.30
2015,01,25,09,21,8.30
2015,01,25,09,22,8.30
2015,01,25,09,23,8.30
2015,01,25,09,24,8.30
2015,01,25,09,25,8.30
2015,01,25,09,26,8.30
2015,01,25,09,27,8.20
2015,01,25,09,28,8.30
2015,01,25,09,29,8.30
2015,01,25,09,30,8.30
2015,01,25,09,31,8.30
2015,01,25,09,32,8.30
2015,01,25,09,33,8.30
2015,01,25,09,34,8.30
2015,01,25,09,35,8.30
2015,01,25,09,36,8.30
2015,01,25,09,37,8.30
2015,01,25,09,38,8.30
2015,01,25,09,39,8.30
2015,01,25,09,40,8.30
2015,01,25,09,41,8.30
2015,01,25,09,42,8.30
2015,01,25,09,43,8.30
2015,01,25,09,44,8.30
2015,01,25,09,45,8.30
2015,01,25,09,46,8.30
2015,01,25,09,47,8.30
2015,01,25,09,48,8.30
2015,01,25,09,49,8.40
2015,01,25,09,50,8.40
2015,01,25,09,51,8.40
2015,01,25,09,52,8.40
2015,01,25,09,53,8.40
2015,01,25,09,54,8.40
2015,01,25,09,55,8.40
2015,01,25,09,56,8.40
2015,01,25,09,57,8.50
2015,01,25,09,58,8.50
2015,01,25,09,59,8.50
2015,01,25,10,00,8.50
2015,01,25,10,01,8.50
2015,01,25,10,02,8.60
2015,01,25,10,03,8.60
2015,01,25,10,04,8.60
2015,01,25,10,05,8.60
2015,01,25,10,06,8.60
2015,01,25,10,07,8.60
2015,01,25,10,08,8.70
2015,01,25,10,09,8.70
2015,01,25,10,10,8.70
2015,01,25,10,11,8.70
2015,01,25,10,12,8.70
2015,01,25,10,13,8.80
2015,01,25,10,14,8.80
2015,01,25,10,15,8.80
2015,01,25,10,16,8.80
2015,01,25,10,17,8.80
2015,01,25,10,18,8.80
2015,01,25,10,19,8.80
2015,01,25,10,20,8.80
2015,01,25,10,21,8.80
2015,01,25,10,22,8.80
2015,01,25,10,23,8.80
2015,01,25,10,24,8.90
2015,01,25,10,25,8.90
2015,01,25,10,26,8.90
2015,01,25,10,27,9.00
2015,01,25,10,28,9.00
2015,01,25,10,29,9.10
2015,01,25,10,30,9.10
2015,01,25,10,31,9.10
2015,01,25,10,32,9.10
2015,01,25,10,33,9.10
2015,01,25,10,34,9.10
2015,01,25,10,35,9.20
2015,01,25,10,36,9.20
2015,01,25,10,37,9.20
2015,01,25,10,38,9.20
2015,01,25,10,39,9.30
2015,01,25,10,40,9.30
2015,01,25,10,41,9.30
2015,01,25,10,42,9.30
2015,01,25,10,43,9.30
2015,01,25,10,44,9.40
2015,01,25,10,45,9.40
2015,01,25,10,46,9.40
2015,01,25,10,47,9.50
2015,01,25,10,48,9.50
2015,01,25,10,49,9.60
2015,01,25,10,50,9.60
2015,01,25,10,51,9.70
2015,01,25,10,52,9.70
2015,01,25,10,53,9.80
2015,01,25,10,54,9.80
2015,01,25,10,55,9.80
2015,01,25,10,56,9.90
2015,01,25,10,57,9.90
2015,01,25,10,58,9.90
2015,01,25,10,59,9.90
2015,01,25,11,00,9.90
2015,01,25,11,01,10.00
2015,01,25,11,02,10.00
2015,01,25,11,03,10.00
2015,01,25,11,04,10.10
2015,01,25,11,05,10.10
2015,01,25,11,06,10.10
2015,01,25,11,07,10.20
2015,01,25,11,08,10.20
2015,01,25,11,09,10.20
2015,01,25,11,10,10.20
2015,01,25,11,11,10.20
2015,01,25,11,12,10.20
2015,01,25,11,13,10.20
2015,01,25,11,14,10.30
2015,01,25,11,15,10.30
2015,01,25,11,16,10.30
2015,01,25,11,17,10.40
2015,01,25,11,18,10.40
2015,01,25,11,19,10.40
2015,01,25,11,20,10.40
2015,01,25,11,21,10.40
2015,01,25,11,22,10.50
2015,01,25,11,23,10.50
2015,01,25,11,24,10.50
2015,01,25,11,25,10.60
2015,01,25,11,26,10.60
2015,01,25,11,27,10.60
2015,01,25,11,28,10.60
2015,01,25,11,29,10.60
2015,01,25,11,30,10.70
2015,01,25,11,31,10.70
2015,01,25,11,32,10.70
2015,01,25,11,33,10.70
2015,01,25,11,34,10.70
2015,01,25,11,35,10.80
2015,01,25,11,36,10.80
2015,01,25,11,37,10.80
2015,01,25,11,38,10.80
2015,01,25,11,39,10.90
2015,01,25,11,40,10.90
2015,01,25,11,41,10.90
2015,01,25,11,42,10.90
2015,01,25,11,43,11.00
2015,01,25,11,44,11.00
2015,01,25,11,45,11.00
2015,01,25,11,46,11.10
2015,01,25,11,47,11.10
2015,01,25,11,48,11.10
2015,01,25,11,49,11.10
2015,01,25,11,50,11.10
2015,01,25,11,51,11.20
2015,01,25,11,52,11.20
2015,01,25,11,53,11.20
2015,01,25,11,54,11.20
2015,01,25,11,55,11.20
2015,01,25,11,56,11.30
2015,01,25,11,57,11.30
2015,01,25,11,58,11.30
2015,01,25,11,59,11.30
2015,01,25,12,00,11.40
2015,01,25,12,01,11.40
2015,01,25,12,02,11.40
2015,01,25,12,03,11.40
2015,01,25,12,04,11.40
2015,01,25,12,05,11.40
2015,01,25,12,06,11.40
2015,01,25,12,07,11.40
2015,01,25,12,08,11.40
2015,01,25,12,09,11.40
2015,01,25,12,10,11.40
2015,01,25,12,11,11.40
2015,01,25,12,12,11.50
2015,01,25,12,13,11.50
2015,01,25,12,14,11.50
2015,01,25,12,15,11.50
2015,01,25,12,16,11.50
2015,01,25,12,17,11.50
2015,01,25,12,18,11.60
2015,01,25,12,19,11.60
2015,01,25,12,20,11.60
2015,01,25,12,21,11.60
2015,01,25,12,22,11.60
2015,01,25,12,23,11.60
2015,01,25,12,24,11.60
2015,01,25,12,25,11.60
2015,01,25,12,26,11.60
2015,01,25,12,27,11.60
2015,01,25,12,28,11.60
2015,01,25,12,29,11.60
2015,01,25,12,30,11.70
2015,01,25,12,31,11.70
2015,01,25,12,32,11.70
2015,01,25,12,33,11.70
2015,01,25,12,34,11.70
2015,01,25,12,35,11.70
2015,01,25,12,36,11.70
2015,01,25,12,37,11.70
2015,01,25,12,38,11.80
2015,01,25,12,39,11.80
2015,01,25,12,40,11.80
2015,01,25,12,41,11.80
2015,01,25,12,42,11.80
2015,01,25,12,43,11.80
2015,01,25,12,44,11.80
2015,01,25,12,45,11.80
2015,01,25,12,46,11.80
2015,01,25,12,47,11.80
2015,01,25,12,48,11.80
2015,01,25,12,49,11.80
2015,01,25,12,50,11.80
2015,01,25,12,51,11.80
2015,01,25,12,52,11.80
2015,01,25,12,53,11.80
2015,01,25,12,54,11.80
2015,01,25,12,55,11.80
2015,01,25,12,56,11.80
2015,01,25,12,57,11.80
2015,01,25,12,58,11.90
2015,01,25,12,59,11.90
2015,01,25,13,00,11.90
2015,01,25,13,01,11.90
2015,01,25,13,02,11.90
2015,01,25,13,03,11.90
2015,01,25,13,04,12.00
2015,01,25,13,05,12.00
2015,01,25,13,06,12.00
2015,01,25,13,07,12.10
2015,01,25,13,08,12.10
2015,01,25,13,09,12.10
2015,01,25,13,10,12.10
2015,01,25,13,11,12.10
2015,01,25,13,12,12.10
2015,01,25,13,13,12.10
2015,01,25,13,14,12.10
2015,01,25,13,15,12.10
2015,01,25,13,16,12.10
2015,01,25,13,17,12.10
2015,01,25,13,18,12.10
2015,01,25,13,19,12.10
2015,01,25,13,20,12.20
2015,01,25,13,21,12.20
2015,01,25,13,22,12.20
2015,01,25,13,23,12.20
2015,01,25,13,24,12.20
2015,01,25,13,25,12.20
2015,01,25,13,26,12.20
2015,01,25,13,27,12.20
2015,01,25,13,28,12.20
2015,01,25,13,29,12.20
2015,01,25,13,30,12.20
2015,01,25,13,31,12.20
2015,01,25,13,32,12.30
2015,01,25,13,33,12.30
2015,01,25,13,34,12.30
2015,01,25,13,35,12.30
2015,01,25,13,36,12.20
2015,01,25,13,37,12.20
2015,01,25,13,38,12.20
2015,01,25,13,39,12.20
2015,01,25,13,40,12.20
2015,01,25,13,41,12.20
2015,01,25,13,42,12.20
2015,01,25,13,43,12.20
2015,01,25,13,44,12.20
2015,01,25,13,45,12.20
2015,01,25,13,46,12.20
2015,01,25,13,47,12.20
2015,01,25,13,48,12.20
2015,01,25,13,49,12.20
2015,01,25,13,50,12.20
2015,01,25,13,51,12.20
2015,01,25,13,52,12.20
2015,01,25,13,53,12.30
2015,01,25,13,54,12.30
2015,01,25,13,55,12.30
2015,01,25,13,56,12.30
2015,01,25,13,57,12.30
2015,01,25,13,58,12.30
2015,01,25,13,59,12.30
2015,01,25,14,00,12.30
2015,01,25,14,01,12.30
2015,01,25,14,02,12.30
2015,01,25,14,03,12.30
2015,01,25,14,04,12.30
2015,01,25,14,05,12.30
2015,01,25,14,06,12.30
2015,01,25,14,07,12.30
2015,01,25,14,08,12.30
2015,01,25,14,09,12.30
2015,01,25,14,10,12.30
2015,01,25,14,11,12.30
2015,01,25,14,12,12.40
2015,01,25,14,13,12.40
2015,01,25,14,14,12.40
2015,01,25,14,15,12.40
2015,01,25,14,16,12.40
2015,01,25,14,17,12.40
2015,01,25,14,18,12.40
2015,01,25,14,19,12.40
2015,01,25,14,20,12.50
2015,01,25,14,21,12.50
2015,01,25,14,22,12.50
2015,01,25,14,23,12.50
2015,01,25,14,24,12.50
2015,01,25,14,25,12.50
2015,01,25,14,26,12.50
2015,01,25,14,27,12.50
2015,01,25,14,28,12.50
2015,01,25,14,29,12.40
2015,01,25,14,30,12.40
2015,01,25,14,31,12.40
2015,01,25,14,32,12.40
2015,01,25,14,33,12.40
2015,01,25,14,34,12.40
2015,01,25,14,35,12.40
2015,01,25,14,36,12.40
2015,01,25,14,37,12.40
2015,01,25,14,38,12.40
2015,01,25,14,39,12.50
2015,01,25,14,40,12.50
2015,01,25,14,41,12.40
2015,01,25,14,42,12.40
2015,01,25,14,43,12.40
2015,01,25,14,44,12.40
2015,01,25,14,45,12.40
2015,01,25,14,46,12.40
2015,01,25,14,47,12.40
2015,01,25,14,48,12.40
2015,01,25,14,49,12.40
2015,01,25,14,50,12.40
2015,01,25,14,51,12.40
2015,01,25,14,52,12.40
2015,01,25,14,53,12.40
2015,01,25,14,54,12.40
2015,01,25,14,55,12.40
2015,01,25,14,56,12.40
2015,01,25,14,57,12.40
2015,01,25,14,58,12.40
2015,01,25,14,59,12.40
2015,01,25,15,00,12.40
2015,01,25,15,01,12.50
2015,01,25,15,02,12.50
2015,01,25,15,03,12.40
2015,01,25,15,04,12.40
2015,01,25,15,05,12.40
2015,01,25,15,06,12.50
2015,01,25,15,07,12.40
2015,01,25,15,08,12.40
2015,01,25,15,09,12.40
2015,01,25,15,10,12.50
2015,01,25,15,11,12.50
2015,01,25,15,12,12.40
2015,01,25,15,13,12.40
2015,01,25,15,14,12.40
2015,01,25,15,15,12.40
2015,01,25,15,16,12.40
2015,01,25,15,17,12.40
2015,01,25,15,18,12.40
2015,01,25,15,19,12.40
2015,01,25,15,20,12.40
2015,01,25,15,21,12.40
2015,01,25,15,22,12.40
2015,01,25,15,23,12.40
2015,01,25,15,24,12.40
2015,01,25,15,25,12.40
2015,01,25,15,26,12.40
2015,01,25,15,27,12.40
2015,01,25,15,28,12.40
2015,01,25,15,29,12.40
2015,01,25,15,30,12.40
2015,01,25,15,31,12.40
2015,01,25,15,32,12.40
2015,01,25,15,33,12.40
2015,01,25,15,34,12.30
2015,01,25,15,35,12.30
2015,01,25,15,36,12.30
2015,01,25,15,37,12.30
2015,01,25,15,38,12.30
2015,01,25,15,39,12.30
2015,01,25,15,40,12.30
2015,01,25,15,41,12.30
2015,01,25,15,42,12.30
2015,01,25,15,43,12.30
2015,01,25,15,44,12.30
2015,01,25,15,45,12.30
2015,01,25,15,46,12.30
2015,01,25,15,47,12.30
2015,01,25,15,48,12.30
2015,01,25,15,49,12.30
2015,01,25,15,50,12.20
2015,01,25,15,51,12.20
2015,01,25,15,52,12.20
2015,01,25,15,53,12.20
2015,01,25,15,54,12.20
2015,01,25,15,55,12.20
2015,01,25,15,56,12.20
2015,01,25,15,57,12.20
2015,01,25,15,58,12.20
2015,01,25,15,59,12.20
2015,01,25,16,00,12.20
2015,01,25,16,01,12.20
2015,01,25,16,02,12.20
2015,01,25,16,03,12.10
2015,01,25,16,04,12.10
2015,01,25,16,05,12.10
2015,01,25,16,06,12.10
2015,01,25,16,07,12.10
2015,01,25,16,08,12.10
2015,01,25,16,09,12.10
2015,01,25,16,10,12.00
2015,01,25,16,11,12.00
2015,01,25,16,12,12.00
2015,01,25,16,13,12.00
2015,01,25,16,14,12.00
2015,01,25,16,15,12.00
2015,01,25,16,16,11.90
2015,01,25,16,17,11.90
2015,01,25,16,18,11.90
2015,01,25,16,19,11.90
2015,01,25,16,20,11.90
2015,01,25,16,21,11.90
2015,01,25,16,22,11.90
2015,01,25,16,23,11.90
2015,01,25,16,24,11.80
2015,01,25,16,25,11.80
2015,01,25,16,26,11.80
2015,01,25,16,27,11.80
2015,01,25,16,28,11.80
2015,01,25,16,29,11.80
2015,01,25,16,30,11.70
2015,01,25,16,31,11.70
2015,01,25,16,32,11.70
2015,01,25,16,33,11.70
2015,01,25,16,34,11.70
2015,01,25,16,35,11.70
2015,01,25,16,36,11.70
2015,01,25,16,37,11.60
2015,01,25,16,38,11.60
2015,01,25,16,39,11.60
2015,01,25,16,40,11.60
2015,01,25,16,41,11.60
2015,01,25,16,42,11.60
2015,01,25,16,43,11.50
2015,01,25,16,44,11.50
2015,01,25,16,45,11.50
2015,01,25,16,46,11.50
2015,01,25,16,47,11.50
2015,01,25,16,48,11.40
2015,01,25,16,49,11.40
2015,01,25,16,50,11.40
2015,01,25,16,51,11.40
2015,01,25,16,52,11.40
2015,01,25,16,53,11.40
2015,01,25,16,54,11.30
2015,01,25,16,55,11.30
2015,01,25,16,56,11.30
2015,01,25,16,57,11.30
2015,01,25,16,58,11.30
2015,01,25,16,59,11.30
2015,01,25,17,00,11.20
2015,01,25,17,01,11.20
2015,01,25,17,02,11.20
2015,01,25,17,03,11.20
2015,01,25,17,04,11.10
2015,01,25,17,05,11.10
2015,01,25,17,06,11.10
2015,01,25,17,07,11.10
2015,01,25,17,08,11.00
2015,01,25,17,09,11.00
2015,01,25,17,10,11.00
2015,01,25,17,11,10.90
2015,01,25,17,12,10.90
2015,01,25,17,13,10.90
2015,01,25,17,14,10.90
2015,01,25,17,15,10.90
2015,01,25,17,16,10.80
2015,01,25,17,17,10.80
2015,01,25,17,18,10.80
2015,01,25,17,19,10.80
2015,01,25,17,20,10.80
2015,01,25,17,21,10.70
2015,01,25,17,22,10.70
2015,01,25,17,23,10.70
2015,01,25,17,24,10.70
2015,01,25,17,25,10.70
2015,01,25,17,26,10.70
2015,01,25,17,27,10.60
2015,01,25,17,28,10.60
2015,01,25,17,29,10.60
2015,01,25,17,30,10.60
2015,01,25,17,31,10.60
2015,01,25,17,32,10.60
2015,01,25,17,33,10.60
2015,01,25,17,34,10.60
2015,01,25,17,35,10.60
2015,01,25,17,36,10.50
2015,01,25,17,37,10.50